[[{"header":{"parameterUnit":"m.s-1","parameterCategory":1,"la1":30.2991,"la2":30.254,"lo1":-89.0895,"lo2":-89.0444,"dy":0.0017,"dx":0.0017,"nx":28,"ny":28,"refTime":"2026-02-04T03:00:00:Z","depth":0,"parameterNumber":2,"parameterNumberName":"U-component_of_WINDS"},"data":[0,0,0,0,0,0,0,0,0,0,0,0,0,0,0,0,0,0,0,0,0,0,0,0,0,0,0,0,0,0,0,0,0,0,0,0,0,0,0,0,0,0,0,0,0,0,0,0,0,0,0,0,0,0,0,0,0,0,3.293,3.293,0,3.2941,3.2941,3.2941,3.289,3.2888,3.2887,3.2886,3.2896,3.2898,3.2899,0,0,0,0,0,0,0,0,0,0,0,0,0,3.2863,3.2865,3.293,3.293,3.293,3.2941,3.2941,3.2941,3.289,3.2888,3.2887,3.2885,3.2895,3.2897,3.2899,0,0,0,0,0,0,0,0,0,0,0,0,0,3.2885,3.2865,3.293,3.2906,3.2904,3.2941,3.2941,3.2941,3.2891,3.2888,3.2886,3.2884,3.2895,3.2897,3.29,3.296,0,0,3.2907,3.2908,0,0,0,0,0,0,0,0,3.2884,3.2888,3.2909,3.2908,3.2905,3.2912,3.2922,3.2948,3.2891,3.2896,3.2886,3.2883,3.2903,3.2905,3.2912,3.296,3.2961,3.2908,3.2909,3.291,3.2911,0,0,0,0,0,0,0,3.2883,3.2887,3.2934,3.291,3.2907,3.2895,3.2895,3.2926,3.2912,3.2895,3.2891,3.2893,3.2901,3.2909,3.2912,3.2961,3.2907,3.291,3.2911,3.2912,3.3061,3.3063,0,0,0,0,0,0,3.2884,3.2886,3.2934,3.2935,3.2889,3.2898,3.2898,3.2912,3.2911,3.2909,3.2895,3.2891,3.2906,3.2909,3.2912,3.2983,3.291,3.2912,3.2914,3.3059,3.3062,3.3064,0,0,0,0,0,0,3.2883,3.2889,3.2933,3.2909,3.2914,3.2901,3.2917,3.2913,3.2921,3.2911,3.2909,3.2906,3.2905,3.2908,3.2949,3.2982,3.2914,3.2916,3.3056,3.306,3.3063,3.3125,0,0,0,0,0,0,3.2882,3.2889,3.2912,3.291,3.2916,3.297,3.2919,3.2915,3.2926,3.292,3.2921,3.2919,3.2903,3.2945,3.2951,3.2984,3.2918,3.3053,3.3057,3.3062,3.312,3.313,3.3139,0,0,0,0,0,3.2879,3.2928,3.2913,3.2919,3.2944,3.2972,3.2975,3.2957,3.2929,3.2951,3.2946,3.2919,3.2978,3.295,3.2956,3.2991,3.305,3.3056,3.3061,3.3115,3.3128,3.3139,0,0,0,0,0,0,3.2933,3.2927,3.2911,3.2961,3.2968,3.2964,3.2991,3.2971,3.2985,3.2979,3.2955,3.2956,3.3001,3.3,3.2968,3.305,3.3009,3.3016,3.3048,3.306,3.307,3.3069,3.292,0,0,0,0,0,3.2951,3.2975,3.2969,3.3013,3.3018,3.3004,3.3016,3.3001,3.3007,3.301,3.3006,3.3013,3.3033,3.3047,3.3065,3.312,3.3119,3.3147,3.3157,3.3165,3.3171,3.3201,3.3213,3.3082,3.3082,3.3082,0,0,3.2987,3.2987,3.3004,3.3024,3.3028,3.3053,3.3007,3.3035,3.3054,3.3014,3.3052,3.305,3.3056,3.3105,3.3126,3.3105,3.3207,3.3172,3.3178,3.318,3.3207,3.322,3.3231,3.3086,3.3085,3.3085,0,0,3.3067,3.3069,3.3107,3.3112,3.3119,3.311,3.3119,3.3119,3.3116,3.3155,3.3125,3.3147,3.3182,3.3188,3.3195,3.328,3.3256,3.3286,3.3336,3.3366,3.3376,3.3385,3.3415,3.3426,3.3292,3.3293,3.3293,0,3.3111,3.3148,3.3129,3.316,3.317,3.3136,3.3174,3.318,3.3192,3.32,3.3177,3.3221,3.3223,3.3272,3.3293,3.33,3.331,3.3285,3.3376,3.3385,3.3393,3.3421,3.3433,3.3296,3.3296,3.3296,3.3295,0,3.3203,3.3229,3.3259,3.3272,3.3286,3.332,3.3306,3.3323,3.3307,3.3301,3.3341,3.3342,3.336,3.3371,3.3356,3.3419,3.3406,3.338,3.3339,3.341,3.3436,3.3446,3.3302,3.33,3.3299,3.3298,0,0,3.3314,3.3318,3.3329,3.3335,3.3341,3.3361,3.3395,3.3413,3.3427,3.3437,3.3465,3.3496,3.3473,3.3482,3.3467,3.3493,3.356,3.3464,3.3464,3.3482,3.363,3.3649,3.3662,3.3545,3.3547,3.3549,3.3629,0,3.3392,3.3449,3.3434,3.3491,3.3516,3.3485,3.3514,3.3521,3.3517,3.3537,3.3532,3.3555,3.3522,3.3527,3.3552,3.3547,3.359,3.3541,3.357,3.3571,3.3569,3.3675,3.3695,3.3771,3.364,3.3641,3.3643,0,3.349,3.3505,3.3565,3.3568,3.3578,3.3604,3.362,3.364,3.3648,3.3643,3.3654,3.3635,3.3668,3.3628,3.3673,3.3641,3.3652,3.3652,3.3654,3.3655,3.361,3.3679,3.3795,3.3806,3.3659,3.3657,3.3656,0,3.3565,3.36,3.3641,3.3647,3.3652,3.3671,3.3674,3.3679,3.3692,3.3706,3.3714,3.3732,3.3742,3.3756,3.3743,3.3715,3.3791,3.3749,3.3787,3.3788,3.3803,3.3803,3.3922,3.3812,3.3812,3.3812,3.3812,0,3.3653,3.3691,3.3675,3.37,3.3742,3.3724,3.3766,3.3765,3.3771,3.3795,3.377,3.3793,3.3774,3.3796,3.3786,3.3825,3.383,3.3827,3.3823,3.3829,3.3829,3.3835,3.3829,3.3815,3.3814,3.3814,3.3813,0,3.3743,3.3734,3.3777,3.3778,3.378,3.381,3.3811,3.3835,3.3829,3.3861,3.3867,3.3858,3.3883,3.3871,3.3897,3.389,3.3941,3.3931,3.3938,3.3935,3.3974,3.397,3.4101,3.4117,3.3998,3.3999,3.4,0,3.3799,3.3828,3.3833,3.3848,3.3853,3.3877,3.389,3.3875,3.3889,3.3901,3.3923,3.3946,3.3963,3.4004,3.4,3.4019,3.4009,3.4054,3.4012,3.4016,3.4009,3.4008,3.401,3.4062,3.4063,3.4064,3.4065,0,3.39,3.3895,3.3915,3.3934,3.3951,3.3965,3.3977,3.3991,3.3976,3.3994,3.4019,3.4032,3.4059,3.4082,3.41,3.4102,3.4081,3.4079,3.4088,3.4094,3.4097,3.4095,3.3961,3.4075,3.4074,3.4074,3.4073,3.4073,3.3975,3.3999,3.4007,3.4031,3.4039,3.4051,3.4073,3.4072,3.4093,3.4113,3.4103,3.4133,3.4141,3.4162,3.4168,3.4191,3.4173,3.4187,3.4191,3.4195,3.42,3.4094,3.4194,3.4194,3.4194,3.4193,3.4193,0,3.4074,3.4079,3.4101,3.4119,3.4138,3.4118,3.4131,3.4147,3.4174,3.4184,3.4202,3.4231,3.4254,3.4252,3.4273,3.4292,3.4283,3.4298,3.4296,3.4297,3.4214,3.4204,3.4305,3.4305,3.4305,3.4305,3.4305,3.4305,3.4128,3.4169,3.4165,3.4209,3.4213,3.4242,3.4251,3.4262,3.427,3.4305,3.4324,3.4323,3.4328,3.435,3.437,3.4369,3.4377,3.4396,3.4391,3.4314,3.4303,3.4292,3.4282,3.4398,3.4398,3.4472,3.4472,3.4473]},{"header":{"parameterUnit":"m.s-1","parameterCategory":1,"la1":30.2991,"la2":30.254,"lo1":-89.0895,"lo2":-89.0444,"dy":0.0017,"dx":0.0017,"nx":28,"ny":28,"refTime":"2026-02-04T03:00:00:Z","depth":0,"parameterNumber":3,"parameterNumberName":"V-component_of_WINDS"},"data":[0,0,0,0,0,0,0,0,0,0,0,0,0,0,0,0,0,0,0,0,0,0,0,0,0,0,0,0,0,0,0,0,0,0,0,0,0,0,0,0,0,0,0,0,0,0,0,0,0,0,0,0,0,0,0,0,0,0,-7.2449,-7.2451,0,-7.2638,-7.264,-7.2642,-7.2591,-7.2587,-7.2583,-7.258,-7.2768,-7.2776,-7.2785,0,0,0,0,0,0,0,0,0,0,0,0,0,-7.2039,-7.2047,-7.2449,-7.2451,-7.2453,-7.2637,-7.264,-7.2642,-7.2591,-7.2587,-7.2582,-7.2578,-7.2765,-7.2775,-7.2785,0,0,0,0,0,0,0,0,0,0,0,0,0,-7.2221,-7.205,-7.2448,-7.245,-7.2452,-7.2637,-7.264,-7.2643,-7.2592,-7.2587,-7.2581,-7.2576,-7.2762,-7.2774,-7.2787,-7.2979,0,0,-7.2826,-7.2831,0,0,0,0,0,0,0,0,-7.2211,-7.2236,-7.2447,-7.245,-7.2453,-7.2585,-7.2564,-7.2756,-7.2594,-7.2539,-7.2579,-7.2573,-7.2711,-7.2728,-7.2776,-7.2988,-7.2996,-7.2827,-7.2835,-7.284,-7.2844,0,0,0,0,0,0,0,-7.2198,-7.2228,-7.2523,-7.2451,-7.2454,-7.244,-7.246,-7.26,-7.2654,-7.2543,-7.254,-7.2563,-7.2712,-7.2763,-7.278,-7.2999,-7.2827,-7.2838,-7.2846,-7.2851,-7.3379,-7.3385,0,0,0,0,0,0,-7.2184,-7.2218,-7.2517,-7.2529,-7.2316,-7.2452,-7.2474,-7.2548,-7.2653,-7.2663,-7.2568,-7.256,-7.2744,-7.2765,-7.2786,-7.3019,-7.284,-7.2852,-7.286,-7.3373,-7.338,-7.3387,0,0,0,0,0,0,-7.2176,-7.2212,-7.251,-7.2373,-7.241,-7.2465,-7.2549,-7.2555,-7.2607,-7.2672,-7.268,-7.2611,-7.2741,-7.2768,-7.2932,-7.3024,-7.2858,-7.287,-7.3365,-7.3375,-7.3384,-7.3485,0,0,0,0,0,0,-7.2164,-7.2209,-7.2284,-7.2375,-7.2417,-7.2654,-7.2555,-7.2563,-7.263,-7.2621,-7.2715,-7.2724,-7.2738,-7.2913,-7.2945,-7.3039,-7.288,-7.3357,-7.337,-7.3381,-7.3474,-7.3497,-7.3517,0,0,0,0,0,-7.215,-7.2304,-7.2288,-7.2324,-7.2512,-7.266,-7.2684,-7.2698,-7.2637,-7.2712,-7.2754,-7.2722,-7.3009,-7.2931,-7.2966,-7.3065,-7.3351,-7.3366,-7.338,-7.3464,-7.3492,-7.3516,0,0,0,0,0,0,-7.222,-7.2315,-7.2299,-7.2487,-7.2566,-7.2651,-7.2746,-7.2727,-7.2824,-7.2812,-7.2823,-7.2845,-7.3013,-7.3055,-7.2966,-7.3257,-7.3171,-7.3193,-7.3223,-7.3251,-7.3272,-7.3258,-7.289,0,0,0,0,0,-7.2258,-7.2371,-7.2448,-7.2606,-7.2647,-7.269,-7.2755,-7.2759,-7.284,-7.2873,-7.2926,-7.3005,-7.3113,-7.3184,-7.3287,-7.348,-7.3499,-7.3565,-7.3587,-7.3604,-7.3623,-7.3728,-7.3758,-7.3434,-7.3434,-7.3434,0,0,-7.2336,-7.2402,-7.2473,-7.2622,-7.2684,-7.28,-7.2718,-7.2844,-7.293,-7.2891,-7.305,-7.3092,-7.3181,-7.336,-7.3442,-7.3401,-7.3717,-7.3622,-7.3636,-7.3645,-7.3745,-7.3776,-7.3803,-7.3444,-7.3442,-7.344,0,0,-7.2538,-7.26,-7.2739,-7.2803,-7.2898,-7.2926,-7.2959,-7.3047,-7.3075,-7.3235,-7.3208,-7.3309,-7.3495,-7.356,-7.3617,-7.3845,-7.3818,-7.3878,-7.399,-7.4092,-7.4117,-7.414,-7.4221,-7.425,-7.3896,-7.3896,-7.3897,0,-7.2623,-7.2799,-7.2812,-7.2942,-7.3008,-7.298,-7.312,-7.3181,-7.3304,-7.335,-7.3302,-7.3536,-7.3593,-7.3787,-7.3843,-7.389,-7.3928,-7.3867,-7.4113,-7.4136,-7.4157,-7.4235,-7.4265,-7.3903,-7.3902,-7.3901,-7.3901,0,-7.2898,-7.302,-7.3121,-7.3243,-7.332,-7.3454,-7.3487,-7.3563,-7.3561,-7.3593,-7.3756,-7.3825,-7.3941,-7.3987,-7.3986,-7.4182,-7.4153,-7.411,-7.4024,-7.4194,-7.4267,-7.4297,-7.3912,-7.391,-7.3908,-7.3906,0,0,-7.3149,-7.3278,-7.3315,-7.337,-7.3473,-7.3567,-7.3699,-7.3815,-7.388,-7.3966,-7.4077,-7.4235,-7.4196,-7.4261,-7.4266,-7.4355,-7.4531,-7.43,-7.4303,-7.4341,-7.4751,-7.4784,-7.4818,-7.4515,-7.452,-7.4525,-7.4744,0,-7.3361,-7.3596,-7.3612,-7.3824,-7.3937,-7.3912,-7.4027,-7.4102,-7.4136,-7.4235,-7.4271,-7.4384,-7.4323,-7.4362,-7.445,-7.4491,-7.4614,-7.4476,-7.4617,-7.4621,-7.4595,-7.4856,-7.4891,-7.5094,-7.4772,-7.4777,-7.4781,0,-7.3639,-7.3735,-7.3959,-7.4046,-7.4094,-7.4198,-7.4305,-7.4401,-7.4485,-7.4503,-7.4577,-7.4569,-7.4704,-7.4613,-7.4798,-7.4704,-7.4762,-7.4792,-7.48,-7.4813,-7.4711,-7.4877,-7.516,-7.519,-7.4826,-7.4822,-7.4819,0,-7.38,-7.3985,-7.4143,-7.4191,-7.4297,-7.4371,-7.4418,-7.4497,-7.4565,-7.4659,-7.4703,-7.4811,-7.487,-7.4952,-7.4973,-7.4906,-7.5158,-7.5069,-7.5176,-7.5176,-7.523,-7.5226,-7.5526,-7.5268,-7.5268,-7.5267,-7.5266,0,-7.4034,-7.4172,-7.4217,-7.4314,-7.4468,-7.4485,-7.4635,-7.4678,-7.4748,-7.4852,-7.4837,-7.4934,-7.4956,-7.5058,-7.5075,-7.5226,-7.5252,-7.527,-7.5273,-7.5272,-7.5269,-7.531,-7.5296,-7.5275,-7.5273,-7.5272,-7.527,0,-7.424,-7.4276,-7.4447,-7.4534,-7.4559,-7.4668,-7.4742,-7.4834,-7.4866,-7.4998,-7.503,-7.508,-7.5198,-7.5228,-7.5369,-7.5381,-7.5559,-7.5548,-7.5531,-7.553,-7.5635,-7.5625,-7.5972,-7.6018,-7.5729,-7.5732,-7.5734,0,-7.4387,-7.4493,-7.4592,-7.4662,-7.4713,-7.4825,-7.4895,-7.4916,-7.499,-7.5094,-7.5174,-7.5291,-7.5386,-7.5577,-7.5624,-7.5732,-7.5724,-7.5838,-7.574,-7.5735,-7.5726,-7.5719,-7.573,-7.5857,-7.586,-7.5862,-7.5864,0,-7.4645,-7.4658,-7.4761,-7.4872,-7.4957,-7.5044,-7.5127,-7.5184,-7.5216,-7.53,-7.5422,-7.5496,-7.5641,-7.5758,-7.5867,-7.5913,-7.5895,-7.5895,-7.5925,-7.5925,-7.5911,-7.592,-7.5582,-7.5887,-7.5884,-7.5883,-7.5882,-7.5881,-7.4826,-7.4919,-7.5004,-7.5119,-7.5185,-7.5263,-7.5355,-7.5399,-7.5502,-7.5623,-7.5628,-7.5761,-7.5842,-7.5987,-7.604,-7.6143,-7.6108,-7.6152,-7.6163,-7.6174,-7.6184,-7.5895,-7.6163,-7.6162,-7.6162,-7.6161,-7.6161,0,-7.5083,-7.5137,-7.5243,-7.5361,-7.5452,-7.5428,-7.5519,-7.5596,-7.5714,-7.5792,-7.5887,-7.6027,-7.614,-7.6197,-7.6309,-7.638,-7.6375,-7.6409,-7.6404,-7.6415,-7.6208,-7.6171,-7.6412,-7.6412,-7.6412,-7.6412,-7.6412,-7.6412,-7.5227,-7.5384,-7.5407,-7.5595,-7.5647,-7.5778,-7.5833,-7.5904,-7.5967,-7.6125,-7.622,-7.6257,-7.6326,-7.6443,-7.6545,-7.6559,-7.6601,-7.664,-7.6649,-7.6455,-7.6429,-7.6405,-7.637,-7.6649,-7.6649,-7.6847,-7.6849,-7.6851]}]]